[[{"header":{"parameterUnit":"m.s-1","parameterCategory":1,"la1":30.2991,"la2":30.254,"lo1":-89.0895,"lo2":-89.0444,"dy":0.0017,"dx":0.0017,"nx":28,"ny":28,"refTime":"2024-06-24T21:00:00:Z","depth":0,"parameterNumber":2,"parameterNumberName":"U-component_of_WINDS"},"data":[0,0,0,0,0,0,0,0,0,0,0,0,0,0,0,0,0,0,0,0,0,0,0,0,0,0,0,0,0,0,0,0,0,0,0,0,0,0,0,0,0,0,0,0,0,0,0,0,0,0,0,0,0,0,0,0,0,0,5.0986,5.0987,0,5.1096,5.1097,5.1098,5.0995,5.0991,5.0987,5.0983,5.1096,5.1103,5.111,0,0,0,0,0,0,0,0,0,0,0,0,0,5.0687,5.0693,5.0986,5.0987,5.0988,5.1096,5.1097,5.1098,5.0996,5.0991,5.0986,5.0981,5.1094,5.1102,5.1111,0,0,0,0,0,0,0,0,0,0,0,0,0,5.0809,5.0695,5.0985,5.095,5.0948,5.1095,5.1097,5.1099,5.0997,5.0991,5.0984,5.0979,5.1091,5.1101,5.1112,5.13,0,0,5.1143,5.1148,0,0,0,0,0,0,0,0,5.0802,5.082,5.0954,5.0953,5.0951,5.1025,5.1033,5.1166,5.0998,5.0978,5.0983,5.0976,5.1078,5.1089,5.1123,5.1305,5.131,5.1144,5.115,5.1155,5.1158,0,0,0,0,0,0,0,5.0794,5.0815,5.1029,5.0956,5.0954,5.0929,5.0939,5.1058,5.1062,5.098,5.0972,5.0987,5.1076,5.1113,5.1125,5.1311,5.1144,5.1153,5.1159,5.1163,5.1651,5.1657,0,0,0,0,0,0,5.0789,5.0808,5.1026,5.1032,5.086,5.0939,5.0951,5.1008,5.106,5.1062,5.0992,5.0982,5.1099,5.1113,5.1129,5.135,5.1155,5.1164,5.117,5.1644,5.1652,5.166,0,0,0,0,0,0,5.0783,5.0809,5.1021,5.0918,5.0943,5.0951,5.1016,5.1013,5.105,5.1069,5.1069,5.103,5.1095,5.1114,5.1257,5.1352,5.1169,5.1178,5.1636,5.1647,5.1656,5.1796,0,0,0,0,0,0,5.0775,5.0808,5.0879,5.0921,5.0949,5.1148,5.1021,5.102,5.1068,5.1056,5.1105,5.1107,5.1091,5.1242,5.1268,5.1363,5.1186,5.1628,5.1641,5.1653,5.1782,5.1809,5.1832,0,0,0,0,0,5.0764,5.0915,5.0883,5.091,5.1039,5.1154,5.117,5.1149,5.1077,5.1148,5.116,5.1105,5.1339,5.1258,5.1285,5.1386,5.1621,5.1637,5.1652,5.1771,5.1804,5.1832,0,0,0,0,0,0,5.0885,5.092,5.0885,5.1053,5.1102,5.1136,5.1226,5.1185,5.1254,5.124,5.121,5.1222,5.1373,5.1394,5.1304,5.1569,5.1468,5.149,5.155,5.1581,5.1605,5.1596,5.1195,0,0,0,0,0,5.0931,5.1021,5.1047,5.1193,5.1219,5.1219,5.1268,5.1248,5.1296,5.1316,5.1338,5.1388,5.1472,5.1528,5.1607,5.1786,5.1794,5.1868,5.1893,5.1914,5.1932,5.2026,5.2058,5.171,5.1709,5.1709,0,0,5.1027,5.1057,5.1116,5.1218,5.1253,5.1347,5.1237,5.1341,5.141,5.1332,5.1467,5.1486,5.154,5.1701,5.1773,5.1723,5.203,5.1933,5.1949,5.1956,5.2045,5.2077,5.2107,5.172,5.1718,5.1716,0,0,5.1249,5.1282,5.1406,5.1443,5.1497,5.1496,5.1526,5.1568,5.1576,5.1712,5.1655,5.1737,5.1884,5.1923,5.1962,5.22,5.2151,5.2227,5.2355,5.2447,5.2475,5.2499,5.2581,5.2611,5.2245,5.2246,5.2246,0,5.1361,5.15,5.1475,5.1584,5.1629,5.1563,5.1688,5.1725,5.1803,5.1836,5.1779,5.1959,5.1991,5.2159,5.2217,5.2252,5.2284,5.222,5.2473,5.2497,5.2519,5.2597,5.2628,5.2254,5.2253,5.2252,5.2251,0,5.1635,5.1732,5.1826,5.1901,5.1958,5.2075,5.2067,5.2127,5.2102,5.2107,5.2245,5.2281,5.2365,5.2404,5.2381,5.2569,5.2536,5.2477,5.2374,5.2561,5.2634,5.2664,5.2266,5.2263,5.2261,5.2259,0,0,5.1934,5.1994,5.2029,5.2061,5.2116,5.219,5.2304,5.2385,5.2437,5.2493,5.2585,5.2711,5.2656,5.2701,5.2682,5.2763,5.2946,5.2693,5.2694,5.2737,5.3152,5.3194,5.3229,5.2915,5.2921,5.2925,5.3147,0,5.2156,5.2351,5.2332,5.2518,5.2606,5.2545,5.2643,5.2687,5.2695,5.2772,5.278,5.2868,5.2791,5.2817,5.2895,5.2907,5.3028,5.2891,5.2999,5.3004,5.2985,5.3268,5.3313,5.352,5.3175,5.318,5.3184,0,5.244,5.2505,5.27,5.2739,5.2776,5.2864,5.2936,5.3011,5.306,5.3059,5.311,5.3076,5.3189,5.3087,5.3241,5.3148,5.3192,5.3204,5.3212,5.3219,5.3103,5.3279,5.3586,5.3616,5.3229,5.3225,5.3222,0,5.2635,5.2772,5.2905,5.2935,5.2986,5.3049,5.3073,5.3116,5.3166,5.3229,5.3261,5.3338,5.3379,5.3439,5.3427,5.3353,5.3584,5.348,5.3585,5.3586,5.3634,5.3631,5.3949,5.3668,5.3668,5.3667,5.3666,0,5.2883,5.3004,5.2993,5.3075,5.3208,5.3185,5.3317,5.3334,5.3372,5.3455,5.3408,5.3488,5.3468,5.3547,5.3539,5.3666,5.3687,5.3688,5.3684,5.3691,5.369,5.3717,5.3701,5.3675,5.3673,5.3672,5.367,0,5.3123,5.3121,5.3261,5.3298,5.331,5.3406,5.3436,5.3513,5.3518,5.3624,5.3647,5.3654,5.3744,5.3739,5.3841,5.3835,5.3992,5.3973,5.3975,5.397,5.4074,5.4063,5.4418,5.4462,5.4155,5.4158,5.4161,0,5.3279,5.337,5.3417,5.3469,5.3497,5.3582,5.3632,5.3614,5.3668,5.373,5.3799,5.3884,5.3951,5.4098,5.4112,5.4189,5.4169,5.4289,5.418,5.4184,5.4167,5.4161,5.4168,5.4309,5.4312,5.4315,5.4317,0,5.3557,5.3551,5.3625,5.3699,5.376,5.3818,5.387,5.3916,5.3903,5.3966,5.4057,5.4109,5.4213,5.4297,5.4371,5.4396,5.4354,5.4352,5.4379,5.4385,5.4382,5.4382,5.4029,5.4343,5.434,5.4338,5.4337,5.4336,5.3757,5.3835,5.3879,5.3962,5.4,5.405,5.4123,5.4136,5.4212,5.4294,5.4279,5.4381,5.4426,5.4521,5.4552,5.4631,5.4588,5.463,5.4639,5.4649,5.4659,5.4372,5.4645,5.4644,5.4644,5.4643,5.4643,0,5.403,5.4055,5.4132,5.4206,5.4272,5.4228,5.4284,5.4341,5.4431,5.4477,5.4544,5.4648,5.473,5.4751,5.4829,5.4888,5.4871,5.4909,5.4903,5.4909,5.4695,5.4661,5.4922,5.4922,5.4922,5.4922,5.4921,5.4921,5.4179,5.4306,5.4306,5.4451,5.4476,5.4574,5.4609,5.4655,5.4691,5.4809,5.4877,5.4889,5.4925,5.5006,5.5078,5.5082,5.5112,5.5157,5.5154,5.4952,5.4924,5.4897,5.4866,5.5165,5.5165,5.5361,5.5362,5.5364]},{"header":{"parameterUnit":"m.s-1","parameterCategory":1,"la1":30.2991,"la2":30.254,"lo1":-89.0895,"lo2":-89.0444,"dy":0.0017,"dx":0.0017,"nx":28,"ny":28,"refTime":"2024-06-24T21:00:00:Z","depth":0,"parameterNumber":3,"parameterNumberName":"V-component_of_WINDS"},"data":[0,0,0,0,0,0,0,0,0,0,0,0,0,0,0,0,0,0,0,0,0,0,0,0,0,0,0,0,0,0,0,0,0,0,0,0,0,0,0,0,0,0,0,0,0,0,0,0,0,0,0,0,0,0,0,0,0,0,2.6133,2.6134,0,2.6208,2.6209,2.621,2.6165,2.6163,2.6161,2.6159,2.6238,2.6242,2.6246,0,0,0,0,0,0,0,0,0,0,0,0,0,2.5951,2.5954,2.6133,2.6134,2.6135,2.6208,2.6209,2.621,2.6165,2.6163,2.616,2.6158,2.6236,2.6241,2.6246,0,0,0,0,0,0,0,0,0,0,0,0,0,2.6028,2.5955,2.6133,2.6121,2.6121,2.6208,2.6209,2.6211,2.6166,2.6163,2.6159,2.6156,2.6235,2.6241,2.6247,2.635,0,0,2.6266,2.6268,0,0,0,0,0,0,0,0,2.6024,2.6035,2.6122,2.6122,2.6122,2.6174,2.6174,2.6257,2.6167,2.6149,2.6158,2.6155,2.6219,2.6226,2.6248,2.6354,2.6357,2.6266,2.627,2.6273,2.6274,0,0,0,0,0,0,0,2.6019,2.6032,2.6163,2.6123,2.6123,2.6112,2.612,2.619,2.6201,2.615,2.6147,2.6156,2.6218,2.6242,2.6249,2.6358,2.6266,2.6271,2.6275,2.6278,2.6552,2.6556,0,0,0,0,0,0,2.6014,2.6027,2.616,2.6165,2.6064,2.6118,2.6127,2.616,2.62,2.6203,2.6159,2.6154,2.6233,2.6242,2.6252,2.6375,2.6273,2.6278,2.6282,2.6549,2.6553,2.6557,0,0,0,0,0,0,2.601,2.6026,2.6157,2.6095,2.6111,2.6125,2.6163,2.6164,2.6187,2.6207,2.6209,2.6181,2.6231,2.6243,2.6326,2.6377,2.6281,2.6287,2.6544,2.655,2.6555,2.6622,0,0,0,0,0,0,2.6005,2.6025,2.6064,2.6097,2.6115,2.623,2.6166,2.6167,2.6198,2.6192,2.6228,2.6231,2.6229,2.6317,2.6332,2.6384,2.6292,2.654,2.6547,2.6553,2.6616,2.6629,2.6641,0,0,0,0,0,2.5999,2.6081,2.6067,2.6083,2.6164,2.6233,2.6243,2.6239,2.6202,2.6241,2.6254,2.623,2.6369,2.6326,2.6342,2.6397,2.6537,2.6545,2.6553,2.661,2.6627,2.6641,0,0,0,0,0,0,2.6055,2.6085,2.6069,2.6164,2.6196,2.6225,2.6275,2.6257,2.63,2.6293,2.6286,2.6295,2.6381,2.6397,2.6348,2.6499,2.6447,2.6459,2.6485,2.6501,2.6513,2.6508,2.6297,0,0,0,0,0,2.6078,2.6131,2.6155,2.6236,2.6253,2.6261,2.6291,2.6285,2.6318,2.6331,2.635,2.6384,2.6435,2.6469,2.6517,2.6618,2.6625,2.6663,2.6676,2.6687,2.6697,2.6751,2.6768,2.6583,2.6583,2.6583,0,0,2.6127,2.615,2.6184,2.6248,2.6272,2.6327,2.6273,2.6334,2.6375,2.6341,2.642,2.6435,2.6472,2.6563,2.6605,2.658,2.6749,2.6697,2.6705,2.671,2.6761,2.6778,2.6794,2.6589,2.6588,2.6587,0,0,2.6245,2.6267,2.6337,2.6362,2.6399,2.6404,2.6421,2.6453,2.6461,2.654,2.6515,2.6564,2.6652,2.6679,2.6705,2.6832,2.6811,2.6848,2.6915,2.6967,2.6982,2.6995,2.704,2.7056,2.6858,2.6858,2.6858,0,2.6301,2.6383,2.6376,2.6438,2.6467,2.6438,2.6509,2.6534,2.6585,2.6605,2.6576,2.6686,2.6709,2.6806,2.6837,2.6859,2.6878,2.6844,2.698,2.6993,2.7005,2.7048,2.7065,2.6862,2.6862,2.6861,2.6861,0,2.645,2.6507,2.6559,2.6608,2.6643,2.671,2.6713,2.6749,2.674,2.6748,2.6828,2.6854,2.6907,2.693,2.6922,2.7026,2.7009,2.6981,2.6929,2.7027,2.7067,2.7083,2.6868,2.6867,2.6866,2.6865,0,0,2.6605,2.6649,2.6668,2.669,2.6728,2.6772,2.6838,2.6888,2.6919,2.6956,2.701,2.7085,2.7058,2.7087,2.7082,2.7128,2.7226,2.7093,2.7094,2.7117,2.7343,2.7364,2.7383,2.7212,2.7216,2.7218,2.7339,0,2.6724,2.6837,2.6833,2.6939,2.6991,2.6964,2.7021,2.7051,2.706,2.7106,2.7116,2.7169,2.713,2.7147,2.7192,2.7205,2.7272,2.7196,2.7263,2.7266,2.7255,2.7404,2.7427,2.754,2.7355,2.7358,2.736,0,2.6878,2.6919,2.703,2.706,2.7082,2.7133,2.7179,2.7223,2.7256,2.726,2.7292,2.7279,2.7345,2.7291,2.7382,2.7331,2.7358,2.7369,2.7373,2.7379,2.7319,2.7414,2.7576,2.7593,2.7384,2.7382,2.7381,0,2.698,2.7062,2.7139,2.7159,2.7196,2.7232,2.7249,2.7279,2.731,2.735,2.737,2.7418,2.7444,2.7482,2.7482,2.7443,2.7574,2.752,2.7579,2.7579,2.7608,2.7606,2.7777,2.7626,2.7625,2.7625,2.7625,0,2.7113,2.7182,2.7185,2.7232,2.7309,2.7303,2.7379,2.7392,2.7419,2.7468,2.7448,2.7495,2.7493,2.7541,2.7542,2.7616,2.7629,2.7633,2.7633,2.7635,2.7634,2.7653,2.7645,2.763,2.7629,2.7628,2.7627,0,2.7239,2.7244,2.7326,2.7354,2.7363,2.7418,2.7442,2.7487,2.7494,2.7557,2.7571,2.7583,2.7638,2.7642,2.7706,2.7706,2.7797,2.7788,2.7786,2.7784,2.7842,2.7837,2.8031,2.8056,2.7889,2.789,2.7892,0,2.7324,2.7376,2.741,2.7441,2.746,2.7511,2.7542,2.7539,2.7572,2.7613,2.7654,2.7706,2.7749,2.7838,2.7852,2.7901,2.7893,2.7957,2.79,2.7901,2.7893,2.789,2.7895,2.7969,2.797,2.7972,2.7973,0,2.7474,2.7473,2.7519,2.7565,2.7602,2.7639,2.7673,2.77,2.77,2.7739,2.7794,2.7827,2.7892,2.7945,2.7992,2.801,2.7992,2.7991,2.8007,2.801,2.8006,2.8009,2.7816,2.7987,2.7985,2.7984,2.7984,2.7983,2.7581,2.7626,2.7657,2.7708,2.7733,2.7765,2.7808,2.7821,2.7867,2.7919,2.7914,2.7976,2.8008,2.8069,2.8091,2.8139,2.8118,2.8141,2.8147,2.8153,2.8158,2.7999,2.8148,2.8148,2.8147,2.8147,2.8147,0,2.773,2.7748,2.7795,2.7843,2.7883,2.7862,2.7898,2.7933,2.7987,2.8018,2.806,2.8124,2.8175,2.8193,2.8243,2.8278,2.8271,2.8291,2.8289,2.8293,2.8175,2.8156,2.8296,2.8296,2.8296,2.8296,2.8296,2.8296,2.7812,2.7886,2.789,2.7977,2.7994,2.8054,2.8077,2.8106,2.813,2.8203,2.8245,2.8256,2.8282,2.8333,2.8379,2.8383,2.8402,2.8426,2.8427,2.8316,2.8301,2.8287,2.8269,2.843,2.8431,2.854,2.8541,2.8542]}]]